CW4199 Weather Reports


Display with metric or nautical units.
time (UTC)temp
F
wind
direction
speed
MPH
gust
MPH
rain 1hr
in
rain 24hr
in
rain mn
in
humidity
%
barometer
mb
20260506043904 69 194 6.0 13.0 0.00 0.18 0.18 82 1007.1
20260506043404 69 198 5.0 12.0 0.00 0.18 0.18 82 1007.4
20260506042904 68 201 3.0 9.0 0.00 0.18 0.18 82 1007.6
20260506041904 68 204 6.0 12.0 0.00 0.18 0.18 82 1007.7
20260506040904 68 211 6.0 9.0 0.00 0.18 0.18 83 1007.7
20260506040404 68 211 7.0 15.0 0.00 0.18 0.18 83 1007.5
20260506035904 68 212 9.0 13.0 0.00 0.18 0.18 83 1007.6
20260506035404 68 211 5.0 14.0 0.00 0.18 0.18 83 1007.6
20260506034904 68 203 7.0 13.0 0.00 0.18 0.18 83 1007.6
20260506033904 68 203 6.0 12.0 0.00 0.18 0.18 82 1007.6
20260506033404 68 193 6.0 14.0 0.00 0.18 0.18 82 1007.7
20260506032904 68 210 9.0 21.0 0.00 0.18 0.18 83 1007.7
20260506031904 68 201 8.0 14.0 0.00 0.18 0.18 83 1007.7
20260506031404 68 206 7.0 15.0 0.00 0.18 0.18 83 1007.8
20260506030904 67 193 7.0 13.0 0.00 0.18 0.18 83 1007.8
20260506030404 67 191 6.0 10.0 0.00 0.18 0.18 83 1007.9
20260506025904 67 230 6.0 12.0 0.00 0.18 0.18 83 1008.1
20260506025404 67 182 6.0 14.0 0.00 0.18 0.18 83 1008.0
20260506024904 67 205 7.0 13.0 0.00 0.18 0.18 83 1007.9
20260506024404 67 199 6.0 14.0 0.00 0.18 0.18 83 1007.9
20260506023904 67 203 6.0 12.0 0.00 0.18 0.18 83 1008.0
20260506023404 67 196 5.0 9.0 0.00 0.18 0.18 84 1008.0
20260506022403 67 191 5.0 10.0 0.00 0.18 0.18 84 1007.9
20260506021904 67 213 3.0 12.0 0.00 0.18 0.18 84 1007.9
20260506021404 67 190 4.0 9.0 0.00 0.18 0.18 84 1007.9
20260506020403 67 190 3.0 9.0 0.00 0.18 0.18 84 1007.7
20260506015904 67 210 4.0 7.0 0.00 0.18 0.18 84 1007.9
20260506015404 67 219 4.0 8.0 0.00 0.18 0.18 84 1007.9
20260506014904 67 204 5.0 10.0 0.00 0.18 0.18 84 1007.5
20260506014404 66 205 3.0 9.0 0.00 0.18 0.18 84 1007.3
20260506013904 66 196 6.0 9.0 0.00 0.18 0.18 84 1007.3
20260506012904 66 198 5.0 8.0 0.00 0.18 0.18 84 1007.6
20260506012404 66 190 5.0 9.0 0.00 0.18 0.18 85 1007.8
20260506011904 66 210 5.0 8.0 0.00 0.18 0.18 84 1007.8
20260506011404 66 195 3.0 9.0 0.00 0.18 0.18 84 1007.7
20260506010903 66 189 5.0 9.0 0.00 0.18 0.18 84 1007.2
20260506010403 66 187 6.0 12.0 0.00 0.18 0.18 84 1007.5
20260506005904 66 192 3.0 10.0 0.00 0.18 0.18 84 1007.4
20260506004904 66 201 5.0 9.0 0.00 0.18 0.18 84 1007.6
20260506004404 66 198 5.0 12.0 0.00 0.18 0.18 85 1007.5
20260506003903 66 186 6.0 12.0 0.00 0.18 0.18 85 1007.4
20260506003404 66 202 5.0 9.0 0.00 0.18 0.18 85 1007.4
20260506002904 65 201 5.0 10.0 0.00 0.18 0.18 85 1007.5
20260506002404 65 205 5.0 9.0 0.00 0.18 0.18 84 1007.5
20260506001904 65 216 5.0 12.0 0.00 0.18 0.18 85 1007.5
20260506001404 65 204 5.0 12.0 0.00 0.18 0.18 84 1007.5
20260506000904 65 185 5.0 10.0 0.00 0.18 0.18 84 1007.4
20260506000403 65 216 7.0 10.0 0.00 0.18 0.18 84 1007.5
20260505235404 65 189 5.0 10.0 0.00 0.18 0.18 85 1007.5
20260505234904 65 196 6.0 9.0 0.00 0.18 0.18 85 1007.6
20260505234404 65 211 5.0 10.0 0.00 0.18 0.18 85 1007.8
20260505231904 65 193 5.0 10.0 0.00 0.18 0.18 85 1007.7
20260505231404 65 177 5.0 9.0 0.00 0.18 0.18 85 1007.6
20260505230903 65 170 5.0 12.0 0.00 0.18 0.18 85 1007.5
20260505230404 65 202 5.0 10.0 0.00 0.18 0.18 85 1007.5
20260505225904 65 182 6.0 16.0 0.00 0.18 0.18 85 1007.6
20260505225404 65 211 6.0 14.0 0.00 0.18 0.18 85 1007.7
20260505224904 65 200 5.0 9.0 0.00 0.18 0.18 85 1007.7
20260505224404 64 204 7.0 12.0 0.00 0.18 0.18 85 1007.7
20260505222903 64 193 5.0 12.0 0.00 0.18 0.18 86 1007.9
20260505222403 64 196 6.0 13.0 0.00 0.18 0.18 86 1008.0
20260505221904 64 195 8.0 14.0 0.00 0.18 0.18 86 1008.2
20260505221404 64 206 6.0 12.0 0.00 0.18 0.18 86 1008.2
20260505220904 64 208 5.0 10.0 0.00 0.18 0.18 87 1008.1
20260505220404 64 224 6.0 12.0 0.00 0.18 0.18 86 1008.1
20260505215904 64 196 7.0 13.0 0.00 0.18 0.18 87 1008.0
20260505214904 64 216 5.0 13.0 0.00 0.18 0.18 87 1008.2
20260505213903 64 199 6.0 12.0 0.00 0.18 0.18 88 1008.3
20260505213404 64 202 6.0 12.0 0.00 0.18 0.18 88 1008.3
20260505212904 64 192 7.0 12.0 0.00 0.18 0.18 88 1008.3
20260505212403 64 213 6.0 10.0 0.00 0.18 0.18 88 1008.3
20260505211904 64 216 5.0 12.0 0.00 0.18 0.18 89 1008.4
20260505210403 64 219 6.0 12.0 0.01 0.18 0.18 89 1008.4
20260505205903 64 203 7.0 14.0 0.01 0.18 0.18 89 1008.3
20260505205404 64 197 6.0 14.0 0.01 0.18 0.18 90 1008.3
20260505204404 63 190 7.0 12.0 0.02 0.18 0.18 90 1008.3
20260505203903 63 201 5.0 12.0 0.02 0.18 0.18 90 1008.4
20260505203403 63 199 6.0 9.0 0.02 0.18 0.18 90 1008.5
20260505202904 63 194 3.0 8.0 0.02 0.18 0.18 90 1008.7
20260505202404 63 211 3.0 6.0 0.02 0.18 0.18 90 1008.7
20260505201903 63 200 5.0 8.0 0.03 0.18 0.18 90 1008.8
20260505201405 63 193 5.0 9.0 0.02 0.17 0.17 89 1008.9
20260505200904 63 187 5.0 7.0 0.02 0.17 0.17 89 1008.9
20260505200405 63 198 3.0 7.0 0.02 0.17 0.17 89 1008.9
20260505195905 63 204 5.0 10.0 0.02 0.17 0.17 89 1008.8
20260505195405 63 200 4.0 10.0 0.02 0.17 0.17 89 1008.8
20260505194906 63 195 4.0 7.0 0.02 0.17 0.17 88 1009.0
20260505194404 63 198 5.0 9.0 0.02 0.16 0.16 88 1008.8
20260505193904 63 205 7.0 14.0 0.03 0.16 0.16 88 1008.7
20260505193405 63 195 7.0 15.0 0.03 0.16 0.16 87 1009.0
20260505192905 63 191 9.0 16.0 0.04 0.16 0.16 87 1008.9
20260505192405 63 184 10.0 17.0 0.06 0.16 0.16 87 1008.8
20260505191904 63 173 6.0 14.0 0.05 0.15 0.15 88 1008.7
20260505191405 63 198 7.0 16.0 0.05 0.15 0.15 88 1008.9
20260505190905 63 190 6.0 15.0 0.05 0.15 0.15 89 1009.0
20260505190405 63 167 8.0 17.0 0.05 0.15 0.15 89 1009.1
20260505185905 63 185 7.0 13.0 0.05 0.15 0.15 89 1009.2
20260505185405 63 200 8.0 13.0 0.05 0.15 0.15 89 1009.4
20260505184905 63 198 6.0 12.0 0.05 0.15 0.15 89 1009.5
20260505182905 63 211 7.0 15.0 0.02 0.12 0.12 87 1009.9
20260505182405 63 197 9.0 12.0 0.01 0.10 0.10 86 1009.7
20260505181904 63 208 7.0 15.0 0.01 0.10 0.10 86 1010.0
20260505181405 64 210 7.0 12.0 0.01 0.10 0.10 85 1010.4
20260505180904 64 200 3.0 9.0 0.01 0.10 0.10 86 1009.9
20260505175905 64 200 7.0 13.0 0.01 0.10 0.10 86 1009.9
20260505174405 64 206 6.0 12.0 0.01 0.10 0.10 86 1009.8
20260505173905 64 209 2.0 16.0 0.01 0.10 0.10 87 1009.8
20260505173405 64 224 3.0 12.0 0.01 0.10 0.10 86 1009.7
20260505171905 63 210 7.0 14.0 0.00 0.09 0.09 85 1010.1
20260505171405 64 204 7.0 20.0 0.00 0.09 0.09 85 1010.3
20260505170904 64 215 7.0 13.0 0.00 0.09 0.09 86 1010.5
20260505170404 63 217 5.0 12.0 0.00 0.09 0.09 87 1010.3
20260505165905 62 228 6.0 15.0 0.00 0.09 0.09 87 1010.0
20260505165405 62 221 7.0 15.0 0.00 0.09 0.09 87 1010.3
20260505164904 62 224 3.0 16.0 0.00 0.09 0.09 87 1010.3
20260505164405 62 202 7.0 17.0 0.00 0.09 0.09 86 1010.1
20260505163905 62 194 6.0 20.0 0.00 0.09 0.09 87 1010.1
20260505163404 62 199 6.0 13.0 0.00 0.09 0.09 88 1010.1
20260505162405 61 193 10.0 20.0 0.00 0.09 0.09 88 1009.9
20260505161904 61 211 7.0 16.0 0.00 0.09 0.09 88 1010.0
20260505161405 61 200 10.0 17.0 0.01 0.09 0.09 88 1010.0
20260505160905 60 206 10.0 15.0 0.01 0.09 0.09 88 1010.0
20260505160405 60 213 8.0 17.0 0.01 0.09 0.09 88 1010.1
20260505152904 59 191 7.0 14.0 0.07 0.09 0.09 87 1010.1
20260505152404 59 185 8.0 16.0 0.08 0.09 0.09 87 1010.2
20260505151906 59 192 8.0 14.0 0.09 0.09 0.09 87 1010.6
20260505151405 59 195 5.0 12.0 0.08 0.08 0.08 87 1010.6
20260505140405 61 207 6.0 14.0 0.00 0.00 0.00 76 1011.0
20260505124905 61 187 6.0 10.0 0.00 0.00 0.00 75 1011.0
20260505123904 61 197 6.0 10.0 0.00 0.00 0.00 74 1010.9
20260505123404 61 195 6.0 14.0 0.00 0.00 0.00 74 1011.0
20260505122905 61 199 6.0 13.0 0.00 0.00 0.00 74 1011.0
20260505122405 61 210 6.0 13.0 0.00 0.00 0.00 73 1011.0
20260505121904 61 206 6.0 12.0 0.00 0.00 0.00 74 1010.9
20260505121405 61 204 6.0 12.0 0.00 0.00 0.00 73 1010.8
20260505120905 61 196 6.0 13.0 0.00 0.00 0.00 73 1010.7
20260505115904 61 198 6.0 13.0 0.00 0.00 0.00 73 1010.3
20260505115405 61 204 7.0 10.0 0.00 0.00 0.00 73 1010.1
20260505114905 61 191 6.0 10.0 0.00 0.00 0.00 73 1009.9
20260505114404 61 194 6.0 12.0 0.00 0.00 0.00 72 1009.9
20260505113904 61 200 5.0 12.0 0.00 0.00 0.00 72 1009.9
20260505113405 61 208 6.0 12.0 0.00 0.00 0.00 72 1009.8
20260505112905 61 186 5.0 7.0 0.00 0.00 0.00 72 1009.9
20260505112404 61 201 6.0 12.0 0.00 0.00 0.00 72 1010.1
20260505111904 61 198 4.0 12.0 0.00 0.00 0.00 71 1010.0
20260505111405 61 193 7.0 12.0 0.00 0.00 0.00 71 1009.9
20260505110905 61 207 5.0 10.0 0.00 0.00 0.00 71 1009.9
20260505110405 61 198 4.0 9.0 0.00 0.00 0.00 71 1009.8
20260505101904 61 203 4.0 7.0 0.00 0.00 0.00 72 1009.4
20260505101405 61 196 3.0 6.0 0.00 0.00 0.00 71 1009.4
20260505100904 61 190 3.0 8.0 0.00 0.00 0.00 71 1009.4
20260505100405 61 186 3.0 10.0 0.00 0.00 0.00 71 1009.4
20260505095905 61 211 5.0 7.0 0.00 0.00 0.00 71 1009.7
20260505095405 61 189 2.0 5.0 0.00 0.00 0.00 71 1009.7
20260505094904 61 202 3.0 5.0 0.00 0.00 0.00 71 1009.7
20260505094404 61 200 3.0 6.0 0.00 0.00 0.00 70 1009.8
20260505093905 61 200 2.0 6.0 0.00 0.00 0.00 70 1009.8
20260505093405 61 183 3.0 6.0 0.00 0.00 0.00 70 1009.8
20260505092905 61 190 3.0 6.0 0.00 0.00 0.00 69 1009.7
20260505092405 62 213 3.0 3.0 0.00 0.00 0.00 69 1009.7
20260505091404 62 191 3.0 5.0 0.00 0.00 0.00 68 1009.6
20260505090405 62 163 1.0 5.0 0.00 0.00 0.00 67 1009.6
20260505085905 62 194 4.0 7.0 0.00 0.00 0.00 67 1009.5
20260505085404 63 197 4.0 6.0 0.00 0.00 0.00 67 1009.4
20260505084904 63 204 4.0 8.0 0.00 0.00 0.00 67 1009.3
20260505084405 63 205 3.0 8.0 0.00 0.00 0.00 66 1009.4
20260505083405 63 200 4.0 9.0 0.00 0.00 0.00 66 1009.2
20260505082905 63 201 5.0 12.0 0.00 0.00 0.00 66 1009.2
20260505082404 63 193 3.0 8.0 0.00 0.00 0.00 65 1009.0
20260505081904 63 209 5.0 12.0 0.00 0.00 0.00 65 1009.1
20260505075904 63 193 4.0 9.0 0.00 0.00 0.00 65 1008.7
20260505075404 63 198 7.0 12.0 0.00 0.00 0.00 65 1008.8
20260505074904 63 191 6.0 13.0 0.00 0.00 0.00 65 1008.9
20260505074405 63 200 5.0 9.0 0.00 0.00 0.00 65 1009.0
20260505073904 63 203 5.0 9.0 0.00 0.00 0.00 65 1009.2
20260505073405 63 203 4.0 8.0 0.00 0.00 0.00 65 1009.3
20260505072905 63 195 5.0 12.0 0.00 0.00 0.00 64 1009.4
20260505072405 63 200 5.0 8.0 0.00 0.00 0.00 65 1009.7
20260505070904 63 204 6.0 10.0 0.00 0.00 0.00 65 1009.7
20260505070405 63 196 5.0 9.0 0.00 0.00 0.00 64 1009.8
20260505065905 63 214 5.0 9.0 0.00 0.00 0.00 64 1009.9
20260505065405 63 204 3.0 9.0 0.00 0.00 0.00 65 1010.2
20260505064904 63 202 5.0 8.0 0.00 0.00 0.00 65 1010.3
20260505064405 63 212 5.0 8.0 0.00 0.00 0.00 65 1010.4
20260505063905 63 197 4.0 6.0 0.00 0.00 0.00 65 1010.6
20260505063405 63 204 5.0 9.0 0.00 0.00 0.00 65 1010.5
20260505062904 63 205 5.0 8.0 0.00 0.00 0.00 65 1010.7
20260505062405 63 213 3.0 8.0 0.00 0.00 0.00 65 1010.7
20260505061904 63 198 3.0 6.0 0.00 0.00 0.00 65 1010.7
20260505061405 63 208 4.0 6.0 0.00 0.00 0.00 65 1010.7
20260505060904 63 197 3.0 7.0 0.00 0.00 0.00 65 1010.8
20260505055905 63 202 3.0 6.0 0.00 0.00 0.00 65 1010.8
20260505055404 63 206 3.0 6.0 0.00 0.00 0.00 64 1010.7
20260505054904 63 195 4.0 6.0 0.00 0.00 0.00 64 1010.7
20260505054404 63 216 3.0 6.0 0.00 0.00 0.00 63 1010.9
20260505053904 63 203 4.0 8.0 0.00 0.00 0.00 63 1010.9
20260505053404 63 199 3.0 7.0 0.00 0.00 0.00 63 1010.9
20260505052405 64 207 2.0 6.0 0.00 0.00 0.00 63 1010.9
20260505051904 64 201 3.0 6.0 0.00 0.00 0.00 62 1010.9
20260505050904 64 197 3.0 8.0 0.00 0.00 0.00 62 1010.9
20260505050404 64 204 5.0 9.0 0.00 0.00 0.00 62 1010.9